Regional Weather Roundup
Issued by NWS

Home | Current Version | Previous Version | Text Only | Print | Product List | Glossary On
Versions: 1 2 3 4 5 6 7 8 9 10 11 12 13 14 15 16 17 18 19 20 21 22 23 24 25 26 27 28 29 30 31 32 33 34 35 36 37 38 39 40 41 42 43 44 45 46 47 48 49 50
000
ASHW40 PHFO 300543
RWRHI

WEATHER ROUNDUP FOR HAWAII
NATIONAL WEATHER SERVICE HONOLULU HI
700 PM HST SUN MAY 29 2016

THIS IS AN AUTOMATED REPORT THAT HAS NOT BEEN QUALITY CONTROLLED.

NOTE..."FAIR" INDICATES FEW OR NO CLOUDS BELOW 12,000 FEET WITH NO
SIGNIFICANT WEATHER AND/OR OBSTRUCTIONS TO VISIBILITY.

* - THESE SITES REPORT LIMITED FIELDS

HIZ001>004-300600-
KAUAI-NIIHAU-

CITY           SKY/WX    TMP DP  RH WIND       PRES   REMARKS
LIHUE APT      CLOUDY    74  71  91 N3        30.03R
PORT ALLEN*      N/A     77 N/A N/A E13         N/A
POIPU*           N/A     75 N/A N/A N1          N/A
PRINCEVILLE*     N/A     77 N/A N/A NE2         N/A
KOKOLE POINT*  NOT AVBL
MOLOAA DAIRY*    N/A     79  70  73 N1          N/A
WAIMEA HTS*      N/A     75  66  73 SW2         N/A
PUU OPAE*        N/A     68  64  88 CALM        N/A
PUU LUA*       NOT AVBL
MAKAHA RIDGE*    N/A     70  64  83 N2G8        N/A
$$

HIZ005>011-300600-
OAHU-

CITY           SKY/WX    TMP DP  RH WIND       PRES   REMARKS
HONOLULU       RAIN      73  70  88 E6        30.01R FOG
KALAELOA       CLOUDY    78  67  68 VRB5      30.01R
KANEOHE MCB    PTCLDY    78  66  66 N7        29.98R
WHEELER FIELD  MOCLDY    72  70  94 S3        30.03R
BELLOWS*         N/A    N/A N/A N/A NE6         N/A
KAHUKU*          N/A    N/A N/A N/A VRB2        N/A
WHEELER*         N/A    N/A N/A N/A S6          N/A
WAIANAE HARBOR   N/A    N/A N/A N/A SE8         N/A
DILLINGHAM*      N/A     90  77  66 MISG        N/A  HX 102
KAHUKU TRN*      N/A     77  64  65 CALM        N/A
KAWAILOA*        N/A     73  64  73 NE7         N/A
KII*             N/A     79  66  65 NE6         N/A
MAKUA RANGE*     N/A     84  73  70 E10         N/A  HX  91
OAHU FOREST NW NOT AVBL
SCHOFIELD BRK*   N/A     75  68  78 MISG        N/A
SCHOFIELD S*   NOT AVBL
WAIANAE VLY*   NOT AVBL
KUAOKALA*      NOT AVBL
HONOULIUULI*   NOT AVBL
MOKUOLOE IS*   NOT AVBL
PALEHUA*         N/A    N/A N/A N/A NE3         N/A
WAIAWA PHB*    NOT AVBL
$$

HIZ012>013-300600-
MOLOKAI-

CITY           SKY/WX    TMP DP  RH WIND       PRES   REMARKS
MOLOKAI AIRPT  PTCLDY    75  66  73 NE6       30.03R
KALAUPAPA      NOT AVBL
MAKAPULAPAI*     N/A     77  66  69 E8          N/A
MOLOKAI 1*     NOT AVBL
PUU ALII*        N/A     63  62  95 CALM        N/A
$$

HIZ016-300600-
KAHOOLAWE-

CITY           SKY/WX    TMP DP  RH WIND       PRES   REMARKS
KAHOOLAWE*       N/A     72 N/A N/A SE1         N/A
HAKIOAWA*        N/A     86  79  80 MISG      30.44R HX 100
HONOKANAIA*      N/A     84  68  57 E5        29.93R
KANELOA*         N/A     75  66  73 E6        30.06R
KEALIALALO*    NOT AVBL
LUA MAKIKA*    NOT AVBL
$$

HIZ014>015-300600-
LANAI-

CITY           SKY/WX    TMP DP  RH WIND       PRES   REMARKS
LANAI CITY     CLOUDY    69  67  93 NE5       30.06R
LANAI 1*       NOT AVBL
$$

HIZ017>028-300600-
MAUI-

CITY           SKY/WX    TMP DP  RH WIND       PRES   REMARKS
KAHULUI        CLEAR     80  64  58 CALM      29.99R
KAPALUA-W MAUI NOT AVBL
HANA AIRPORT   NOT AVBL
HANA*            N/A     77 N/A N/A SE2         N/A
HALEAKALA SUMM   N/A     43  32  65 NW13        N/A
MAALAEA BAY*     N/A     79 N/A N/A N6          N/A
HALEAKALA*     NOT AVBL
KAUPO GAP*       N/A     61  59  94 SE1G7       N/A
KULA 1*          N/A     53  51  92 NE3         N/A
$$

HIZ023>026-300600-
BIG ISLAND OF HAWAII COAST AND LOWER SLOPES-

CITY           SKY/WX    TMP DP  RH WIND       PRES   REMARKS
KAILUA KONA    MOCLDY    79  69  71 SE13      29.99R
HILO           CLOUDY    77  67  71 SE6       30.00R
HONOKAA*         N/A     72 N/A N/A VRB1        N/A
KAWAIHAE MWT*    N/A     81 N/A N/A SW7         N/A
KAWAIHAE*        N/A     79 N/A N/A SW8       30.01R
SOUTH POINT*     N/A     72 N/A N/A NW6         N/A
UPOLU AIRPORT*   N/A    N/A N/A N/A E8          N/A
KAMUELA*       CLOUDY    70  64  83 CALM      30.09
HAKALAU*         N/A     54  54  99 NE2         N/A
KALOKO-HONOKO*   N/A     77  68  73 CALM        N/A
PALI 2*          N/A     63  59  88 SW2         N/A
KEALAKOMO*       N/A     77  64  65 CALM        N/A
KAUPULEHU*       N/A     72  64  78 SW6G12      N/A
KAPAPALA*        N/A     65  63  92 NW5         N/A
LOWER KAHUKU*    N/A     63 N/A N/A N1          N/A
PUHE CS*         N/A     81  66  61 SW2         N/A
PUHO CS*         N/A     77  69  77 E1          N/A
PTA KEAMUKU*     N/A    N/A N/A N/A CALM        N/A
WAIKOLOA*        N/A     75  66  73 W8G14       N/A
$$

HIZ027>028-300600-
BIG ISLAND OF HAWAII INTERIOR AND SUMMMITS-

CITY           SKY/WX    TMP DP  RH WIND       PRES   REMARKS
BRADSHAW FIELD PTCLDY    56  53  89 SW3       30.31R
MK VISITOR CEN   N/A     46  45  93 E3          N/A
MAUNA KEA*       N/A     39   9  28 N17         N/A
MAUNA LOA*       N/A    N/A N/A N/A MISG        N/A
MAUNA LOA 1*   NOT AVBL
PTA KIPUKA*      N/A     63  59  88 NW6G12      N/A
PTA RANGE 17*    N/A     68  64  88 NW8         N/A
PTA WEST*        N/A    N/A N/A N/A NW10        N/A
NENE CABIN*      N/A     54  54 100 W1          N/A
AHUMOA*          N/A     53  53 100 NW5G12      N/A
PTA PORTABLE*  NOT AVBL
PUU MALI*        N/A     54  54 100 W7G13       N/A
$$

HIC003-300600-
NORTHWEST ISLANDS-

CITY           SKY/WX    TMP DP  RH WIND       PRES   REMARKS
MIDWAY ISLAND  SUNNY     75  66  73 E7        30.14R
MIDWAY NOS*      N/A     73 N/A N/A MISG      30.13R
FRENCH FRIGATE NOT AVBL
$$

PHZ110>124-180-300600-
BUOY REPORTS

STATION/POSITION TIME  TEMP    WIND        PRES    WAVE   SWELL
                       AIR SEA DIR/SP/G            HT/PER HT/DIR
                 (UTC) (F)     (DEG/KT/KT) (MB)    (FT/S) (FT/D)
BUOY 51001       0500   79 80   60/ 12/ 14 1016.4R
BUOY 51101       0450   76 79   50/ 10/ 12 1017.4R   5/12   3/300
BUOY 51100       NOT AVBL
BUOY 51002       0450   78 80   70/  6/  8 1015.3R   6/ 9   7/110
BUOY 51003       0450   80 82   40/  6/  8 1015.4R   4/15   3/160
BUOY 51004       0450   77 79   80/  8/ 10 1015.3R   6/15   5/160
BARBERS PT BUOY  NOT AVBL
WAIMEA BAY BUOY  0504      79                N/A     2/13   2/310
KAILUA BAY BUOY  0511      79                N/A     3/ 8   2/130
LANAI BUOY       0515      80                N/A     3/15   2/190
BARBERS PT 2     0503      79                N/A     3/14   2/190
PAUWELA MAUI     0509      79                N/A     4/ 9   2/340
HILO             0512      79                N/A     4/ 8   2/130
KANEOHE BAY BUOY 0506      78                N/A     2/ 8
HANALEI KAUAI    NOT AVBL
KAHULUI HARBOR   0500   80 80   10/  4/  6 1015.7R
HONOLULU HARBOR  0500   74 80  300/  2/  2 1016.9R
KILO NALU        NOT AVBL
HILO HARBOR      0500   79 79  120/  4/  6 1015.5R
MOKUOLOE         0400   79 82   20/  6/  8 1015.7R
NAWILIWILI       0500   74 80  240/  5/  7 1016.3R
WHOTS BUOY       NOT AVBL
BUOY 51028       NOT AVBL
$$

......................KEY........................................
  SKY/WX - SKY CONDITIONS/PRESENT WEATHER
  TMP    - TEMPERATURE IN FAHRENHEIT
  DWPT   - DEWPOINT IN FAHRENHEIT
  RH     - RELATIVE HUMIDITY IN PERCENT
  WIND   - DIRECTION AND SPEED /MPH FOR ISLANDS...KTS FOR BUOYS/
  PRES   - MEAN SEA LEVEL PRESSURE IN INCHES OF HG
  VSB    - VISIBILITY IN MILES
  HX     - HEAT INDEX
  WCI    - WIND CHILL INDEX
  VRB    - VARIABLE WIND DIRECTION
  N/A    - NOT AVAILABLE



USA.gov is the U.S. government's official web portal to all federal, state and local government web resources and services.